Flag for Switzerland Weather past 2 weeks in Biel, Switzerland

Now
61 °F

Cool.


Feels Like: 61 °F
Forecast: 44 / 68 °F
Wind: 3 mph from South

Location: Grenchen

Current Time: Sep 3, 2015 at 2:11:40 AM

Latest Report: Sep 3, 2015 at 1:00 AM


Visibility: N/A

Pressure: 29.98 "Hg

Humidity: 75%

Dew point: 53 °F

Location of BielLocation

Historic Weather in Biel — Graph

°F

Biel temperature yesterday

Maximum temperature yesterday: 71 °F (at 5:00 PM)
Minimum temperature yesterday: 58 °F (at 7:00 AM)
Average temperature yesterday: 65 °F

Past Weeks' High & Low Weather Summary

 TemperatureHumidityPressure
High90 °F (Aug 30, 4:00 PM)100% (Aug 26, 6:00 AM)30.27 "Hg (Aug 26, 6:00 AM)
Low47 °F (Aug 26, 6:00 AM)29% (Aug 30, 6:00 PM)29.73 "Hg (Aug 24, 7:00 AM)
Average66 °F71%30.03 "Hg
* Reported Midnight between Aug 18 and Aug 19 — Midnight between Sep 2 and Sep 3, Biel, Weather by CustomWeather, © 2015

Note: Actual official high and low records may vary slightly from our data, if they occured in-between our weather recording intervals... More about our weather records

Advertising

Biel weather history for previous 24 hours

 ConditionsComfort  
Time TempWeatherWind HumidityBarometerVisibility
12:00 AM
Thu, Sep 3
62 °FCool.2 mph76%29.97 "HgN/A
10:00 PM
Wed, Sep 2
66 °FMild.5 mph59%29.97 "HgN/A
9:00 PM65 °FMild.2 mph59%29.96 "HgN/A
8:00 PM67 °FMild.5 mph54%29.95 "HgN/A
7:00 PM69 °FMild.8 mph51%29.95 "HgN/A
6:00 PM70 °FMild.7 mph50%29.94 "HgN/A
5:00 PM71 °FMild.3 mph47%29.94 "HgN/A
4:00 PM70 °FMild.3 mph49%29.94 "HgN/A
3:00 PM70 °FMild.9 mph52%29.96 "HgN/A
2:00 PM70 °FMild.8 mph54%29.96 "HgN/A
1:00 PM70 °FMild.9 mph52%29.96 "HgN/A
12:00 PM68 °FMild.9 mph58%29.98 "HgN/A
11:00 AM66 °FMild.10 mph66%30.00 "HgN/A
10:40 AM65 °FMild.12 mph69%30.01 "HgN/A
10:00 AM64 °FMild.10 mph74%30.01 "HgN/A
9:00 AM61 °FCool.7 mph81%30.03 "HgN/A
8:00 AM59 °FCool.5 mph92%30.04 "HgN/A
7:00 AM58 °FCool.3 mph94%30.04 "HgN/A
4:00 AM59 °FCool.2 mph93%30.06 "HgN/A
3:00 AM59 °FCool.1 mph93%30.07 "HgN/A
2:00 AM60 °FCool.2 mph91%30.08 "HgN/A
Weather by CustomWeather, © 2015

See weather overviewHow to use our weather pages